Lapse_Rate
7.7 7.6 6.8 5.0 3.5 3.3 3.1 3.2 4.0 4.1 4.0 4.3 4.4 4.5 4.6 4.6 4.1 3.8 3.8 3.9 3.7 3.6 3.4 3.3 3.5 3.1 2.9 3.2 3.7 4.5 7.9 9.7
8.0 8.0 7.2 6.4 6.0 3.3 3.4 3.5 3.7 3.9 4.1 4.4 5.5 6.1 6.2 4.9 5.3 3.4 3.4 3.5 3.3 3.3 3.3 3.3 3.5 4.4 4.1 3.6 4.8 6.0 9.6 9.8
8.2 8.1 7.2 6.8 6.4 5.1 5.2 5.0 5.0 5.7 5.7 4.9 7.2 6.9 6.9 6.7 2.9 3.4 3.3 3.8 3.6 3.4 3.2 3.8 5.4 5.9 5.8 5.7 6.2 9.7 9.6 9.7
9.5 8.6 7.4 7.4 7.5 6.4 6.4 6.6 6.2 6.2 6.3 6.3 7.0 6.2 6.2 6.8 5.8 5.1 5.1 5.3 5.6 5.0 5.0 5.6 7.1 9.0 9.6 8.2 9.6 8.1 9.7 9.6
9.8 7.6 6.9 8.2 6.8 9.1 9.6 9.1 8.2 6.8 5.9 6.5 6.0 7.0 7.7 8.9 9.1 8.6 8.7 7.3 8.9 9.2 8.5 8.6 6.6 7.1 9.0 9.4 8.7 8.8 9.7 9.0
9.7 8.3 7.2 6.5 9.0 9.4 9.5 9.3 9.1 9.1 6.6 8.3 8.7 9.4 9.4 9.4 9.5 9.5 9.5 9.5 9.2 9.4 9.5 8.9 9.0 8.6 9.0 9.4 9.4 9.6 9.6 6.0
9.9 9.2 7.3 7.1 7.7 7.6 7.5 9.2 8.3 8.8 8.7 7.1 9.3 9.5 9.3 9.6 9.5 9.6 9.6 9.5 9.5 9.5 9.6 9.6 9.6 9.6 9.2 9.5 9.6 9.4 9.5 9.6
9.7 9.2 7.8 7.7 7.2 7.0 7.6 9.0 8.8 9.5 8.8 7.4 7.2 8.6 9.1 9.6 9.6 9.6 9.5 9.5 9.5 9.6 9.7 9.8 9.8 9.7 9.8 9.5 8.8 9.5 9.4 8.5
9.7 8.9 8.2 8.1 7.8 8.5 9.3 9.4 9.5 9.5 8.9 7.1 7.1 7.7 7.9 9.6 9.6 9.6 9.5 9.6 9.6 9.7 9.6 9.7 9.9 9.9 10.0 9.9 9.8 9.6 9.6 9.4
9.8 9.7 8.5 8.7 8.4 9.5 9.7 9.6 9.6 9.5 9.2 8.2 7.2 7.2 7.4 9.4 9.7 9.5 9.3 9.6 9.5 9.7 9.8 10.1 10.1 10.1 10.1 10.1 9.9 9.8 9.7 9.7
9.7 9.7 9.8 9.5 8.3 9.2 9.2 8.2 9.7 9.4 9.5 9.3 7.1 7.1 7.0 8.7 9.4 8.7 9.0 9.7 9.7 9.7 10.0 9.9 9.9 10.0 10.1 10.2 10.1 10.2 9.9 9.9
9.8 9.6 9.7 8.8 8.6 8.8 9.7 9.7 9.7 9.5 9.3 7.9 6.9 7.2 6.8 7.4 9.0 7.2 8.8 9.6 9.7 8.8 9.7 10.1 10.1 10.0 10.0 10.1 10.0 10.1 9.9 9.9
9.5 9.4 9.0 9.5 9.9 9.9 9.9 9.8 9.8 9.7 9.0 7.1 6.9 6.9 6.9 7.3 8.0 8.0 8.6 9.3 7.6 8.3 9.5 9.6 9.9 10.0 9.6 9.6 9.8 9.8 9.9 10.1
9.6 9.7 9.3 9.5 10.0 10.0 10.0 9.9 9.9 8.9 7.4 6.5 6.3 6.2 6.4 6.9 6.9 7.3 6.5 8.4 7.6 7.2 7.5 9.5 9.8 10.0 9.4 9.3 8.7 9.2 9.7 10.0
9.4 9.6 9.5 9.5 9.7 9.8 9.3 8.8 8.9 9.3 8.5 7.7 6.3 6.1 5.9 5.9 5.9 6.1 6.3 6.8 7.5 7.3 7.1 8.3 9.1 9.8 9.7 9.4 8.5 8.2 9.1 9.7
9.5 9.6 9.5 9.1 8.3 9.9 9.6 9.6 9.5 9.7 8.8 7.0 6.3 5.7 5.7 5.6 5.6 5.7 5.6 6.2 6.1 7.0 7.0 6.9 7.8 9.2 9.7 10.0 9.7 9.4 8.8 8.6
8.3 9.6 9.5 9.9 9.3 9.7 9.8 9.5 9.7 9.5 7.7 6.5 6.1 5.6 5.6 5.5 5.6 5.5 5.7 6.1 6.0 6.1 6.3 6.7 9.2 9.3 9.5 9.6 9.6 9.7 9.5 9.0
7.8 8.9 9.6 9.7 8.5 8.7 9.6 9.5 9.5 9.3 7.6 7.4 7.4 7.1 6.5 5.8 6.1 5.9 5.9 6.2 6.5 7.2 7.4 9.4 8.5 9.7 9.8 9.7 9.6 9.3 9.3 9.1
7.9 9.4 9.6 9.6 8.4 9.3 9.3 9.5 8.7 9.1 7.7 8.5 7.8 8.4 8.5 7.0 6.6 6.4 7.0 6.5 6.8 7.0 8.7 9.3 9.9 9.6 9.7 9.8 9.9 9.8 9.9 9.7
8.9 9.4 9.5 9.3 8.6 9.6 8.9 8.5 9.5 9.2 8.1 8.4 8.6 9.3 8.8 6.7 7.0 7.1 7.4 7.8 8.0 8.7 9.5 9.6 9.7 9.9 9.8 9.8 10.0 10.0 10.0 10.0
Wind_Speed
8 9 10 13 16 15 16 16 16 17 16 15 15 16 18 17 18 17 16 16 15 14 14 14 13 13 14 15 12 9 10 6
7 8 9 10 11 14 15 16 15 16 15 14 10 11 13 18 16 19 17 17 16 15 14 13 10 11 14 15 13 12 9 7
7 7 8 8 9 10 10 11 11 10 11 13 10 14 14 15 17 17 19 16 16 16 16 14 14 5 5 12 14 7 9 6
5 7 8 7 8 8 9 10 13 13 13 12 13 13 13 12 14 13 15 15 11 9 13 12 14 12 9 6 7 9 7 8
6 7 8 7 8 6 7 9 9 12 14 13 13 13 12 13 13 15 16 18 17 15 16 16 15 14 12 11 10 7 6 8
6 7 7 8 7 8 8 10 11 12 13 12 13 13 14 14 14 15 15 15 16 16 14 14 14 15 14 12 12 11 9 11
7 7 7 7 7 9 10 11 12 12 14 14 14 14 13 14 14 15 16 17 17 16 14 13 13 13 14 14 13 12 10 7
7 7 7 9 10 10 10 11 12 13 13 14 14 14 13 13 14 15 15 17 16 16 14 13 11 11 10 11 11 11 12 11
8 8 7 9 10 10 10 10 11 11 12 12 12 12 12 11 12 13 15 16 16 15 16 14 11 9 7 7 7 8 9 11
9 8 9 7 8 8 9 9 9 9 8 9 9 10 10 10 11 12 12 13 14 14 13 9 8 8 6 5 6 5 7 8
10 8 8 8 8 7 6 6 6 6 6 6 6 7 9 9 11 11 11 11 11 13 10 10 9 9 9 6 6 6 6 7
9 8 10 10 8 6 6 5 5 3 3 4 3 5 6 7 8 10 11 11 11 12 10 9 9 9 11 8 7 6 7 5
11 10 11 8 7 6 5 5 4 4 4 5 4 5 7 8 8 10 11 8 8 11 9 10 8 9 8 10 7 4 5 5
12 12 12 10 7 5 3 4 3 4 5 7 7 7 7 7 9 8 11 8 8 9 10 9 8 8 9 10 7 8 3 10
13 13 13 12 10 7 6 4 5 4 4 5 7 7 8 8 8 8 8 9 7 9 10 11 9 8 10 6 6 8 12 1
14 13 12 11 12 9 10 7 5 3 4 5 6 6 7 7 8 8 9 9 8 8 11 9 9 9 7 7 7 9 8 8
14 14 13 12 10 10 8 8 4 5 5 5 4 5 6 6 6 7 8 8 9 9 9 8 7 6 7 7 8 8 9 8
14 14 14 12 10 10 10 8 7 6 5 4 3 2 2 3 5 7 8 8 8 8 8 6 7 7 6 7 6 7 8 9
15 15 14 13 11 10 9 8 8 6 6 4 3 2 1 2 5 6 7 6 7 8 9 8 6 7 7 7 6 6 6 8
17 16 14 14 12 10 8 8 5 5 4 4 2 1 1 2 5 6 7 7 7 8 8 8 6 5 7 7 7 7 7 8
Wind_Direction
82 64 59 67 55 56 59 61 62 64 62 60 58 53 48 42 42 36 36 37 36 32 24 15 8 9 3 354 343 326 287 289
84 61 54 53 62 59 60 59 61 62 58 50 45 63 53 44 34 34 32 32 29 22 14 12 1 360 2 353 332 284 273 289
69 60 53 61 66 63 73 66 67 65 67 51 51 48 41 47 45 35 31 26 24 18 8 358 345 263 3 348 314 343 314 316
79 50 56 64 66 63 66 63 57 51 53 49 57 54 52 51 50 41 42 14 34 20 11 351 355 347 345 315 341 334 306 309
94 74 57 52 61 57 60 61 56 60 54 50 59 58 53 53 49 42 34 28 25 21 24 22 14 6 358 357 338 310 333 45
96 80 74 53 60 61 66 63 65 62 56 61 62 59 56 48 42 39 37 32 25 23 29 24 23 23 18 14 11 357 359 40
117 100 85 79 74 78 71 74 71 74 69 55 54 56 53 46 44 40 35 30 27 24 19 25 22 37 28 27 29 29 25 21
134 119 99 90 89 85 93 89 94 81 70 59 56 52 46 44 40 36 35 29 27 23 20 10 18 19 37 31 35 31 30 21
149 135 119 105 106 105 97 94 94 87 81 66 58 50 52 43 39 30 24 22 16 21 12 18 13 3 15 25 15 29 30 21
161 150 143 131 113 113 107 105 97 89 82 73 56 48 38 36 32 27 12 18 13 7 6 0 6 1 346 343 346 9 4 15
173 168 164 156 141 126 117 120 102 90 77 65 47 41 29 16 22 20 2 12 14 0 355 355 350 354 335 328 299 282 322 354
180 185 178 174 161 166 147 137 120 91 68 47 20 34 21 9 27 22 11 13 8 360 350 351 338 347 327 329 311 285 282 321
189 185 181 180 184 182 167 157 141 118 66 45 56 36 32 24 26 16 5 19 7 356 347 344 346 354 328 333 311 240 260 306
188 192 183 193 190 193 191 160 132 96 91 81 76 70 55 49 23 19 9 358 4 359 353 347 346 0 341 316 334 314 179 323
194 191 188 195 195 182 173 151 163 168 138 99 69 61 54 46 39 23 9 2 4 357 359 354 344 348 346 356 330 337 334 299
198 193 193 195 197 200 201 201 194 137 133 102 93 70 57 43 33 24 16 8 7 358 4 351 351 343 343 356 322 303 307 308
196 194 196 195 194 212 200 223 172 160 139 136 104 83 57 42 27 20 16 10 8 1 357 357 346 338 337 335 325 316 308 287
194 196 196 191 196 199 209 204 183 173 167 166 146 111 104 38 19 15 12 3 2 350 342 340 346 334 334 327 328 325 320 316
193 196 195 189 192 195 199 190 189 183 176 176 178 181 199 48 1 4 357 354 346 341 329 327 337 330 328 323 322 317 318 310
194 195 196 187 191 190 182 175 180 173 178 156 181 235 357 6 348 341 333 329 330 329 319 322 326 322 317 324 319 317 315 311